GLOBALSTAR M077

Last updated on Mon Sep 21 2026 00:03:12 GMT+0000 (Coordinated Universal Time)

1 37191U 10054D 26263.39733008 -.00000083 00000+0 -90358-4 0 9994 2 37191 51.9965 297.6408 0002648 355.7617 17.6874 11.67547809732269
UTC large
Height (km)
Speed (km/s)
/
Latitude / Longitude
Inclination (degrees)
Orbital Period (minutes)
Azimuth
Elevation
Range (km)
Doppler Factor

Next 0 passes for location: London (51.5072 / 0.1276)

No passes found over London.
GLOBALSTAR M077